Hourly Data Report for November 17, 2003

TORONTO CITY
ONTARIO

43°40'00.000" N
79°24'00.000" W
112.50 m
6158355
71508
XTO

Download Data

Hourly Data (November 2003)
Hourly Data Report for November 17, 2003
TIME
LST
Temp Definition
°C
Dew Point Definition
°C
Rel Hum Definition
%
Precip. Amount Definition
mm

Wind Dir Definition
10's deg

Wind Spd Definition
km/h
Visibility Definition
km
Stn Press Definition
kPa
Hmdx Definition


Wind Chill Definition


Weather Definition


00:00 4.4 3.2 92   LegendMM LegendMM LegendMM 100.69     LegendNANA
01:00 4.1 3.4 95   LegendMM LegendMM LegendMM 100.67     LegendNANA
02:00 3.8 3.2 96   LegendMM LegendMM LegendMM 100.68     LegendNANA
03:00 3.7 3.1 96   LegendMM LegendMM LegendMM 100.75     LegendNANA
04:00 3.2 2.8 97   LegendMM LegendMM LegendMM 100.77     LegendNANA
05:00 3.2 2.6 96   LegendMM LegendMM LegendMM 100.81     LegendNANA
06:00 3.4 2.7 95   LegendMM LegendMM LegendMM 100.87     LegendNANA
07:00 3.6 2.7 94   LegendMM LegendMM LegendMM 100.92     LegendNANA
08:00 4.0 3.0 93   LegendMM LegendMM LegendMM 100.97     LegendNANA
09:00 4.2 2.9 91   LegendMM LegendMM LegendMM 101.06     LegendNANA
10:00 4.9 3.1 88   LegendMM LegendMM LegendMM 101.13     LegendNANA
11:00 5.3 3.5 88   LegendMM LegendMM LegendMM 101.15     LegendNANA
12:00 5.5 3.7 88   LegendMM LegendMM LegendMM 101.14     LegendNANA
13:00 5.4 3.3 86   LegendMM LegendMM LegendMM 101.10     LegendNANA
14:00 5.5 3.5 87   LegendMM LegendMM LegendMM 101.11     LegendNANA
15:00 5.6 3.6 87   LegendMM LegendMM LegendMM 101.18     LegendNANA
16:00 5.2 3.5 89   LegendMM LegendMM LegendMM 101.17     LegendNANA
17:00 4.7 3.4 91   LegendMM LegendMM LegendMM 101.16     LegendNANA
18:00 4.9 3.7 92   LegendMM LegendMM LegendMM 101.17     LegendNANA
19:00 4.6 3.6 93   LegendMM LegendMM LegendMM 101.19     LegendNANA
20:00 4.8 3.6 92   LegendMM LegendMM LegendMM 101.17     LegendNANA
21:00 4.8 3.8 93   LegendMM LegendMM LegendMM 101.19     LegendNANA
22:00 4.8 4.1 95   LegendMM LegendMM LegendMM 101.17     LegendNANA
23:00 5.2 4.6 96   LegendMM LegendMM LegendMM 101.07     LegendNANA

Notes on Data Quality.

Legend

  • E = Estimated
  • M = Missing
  • NA = Not Available*
  • [empty] = Indicates an unobserved value
Date modified: